Regional Weather Roundup
Issued by NWS

Home | Current Version | Previous Version | Text Only | Print | Product List | Glossary On
Versions: 1 2 3 4 5 6 7 8 9 10 11 12 13 14 15 16 17 18 19 20 21 22 23 24 25 26 27 28 29 30 31 32 33 34 35 36 37 38 39 40 41 42 43 44 45 46 47 48 49 50
000
ASUS43 KLSX 231257
RWRMO

WEATHER SUMMARY FOR MISSOURI
NATIONAL WEATHER SERVICE SPRINGFIELD MO
700 AM CST THU NOV 23 2017

NOTE: "FAIR" INDICATES FEW OR NO CLOUDS BELOW 12,000 FEET WITH NO
       SIGNIFICANT WEATHER AND/OR OBSTRUCTIONS TO VISIBILITY.
       CURRENT SKY AND/OR WEATHER CONDITIONS ARE NOT AVAILABLE FOR
       CHILLICOTHE AND FARMINGTON.

MOZ001>031-035>038-043-044-053-054-231400-
...NORTHERN AND WESTERN MISSOURI...

CITY           SKY/WX    TMP DP  RH WIND       PRES   REMARKS
KANSAS CTY INT PTCLDY    34  22  61 SW10      30.04F WCI  26
LEE`S SUMMIT   CLEAR     35  22  58 SW13      30.06F WCI  26
ST JOSEPH      CLEAR     30  23  75 SW5       30.05R WCI  25
CHILLICOTHE      N/A     31  22  69 CALM      30.05R

$$
MOZ066>068-077>081-088>096-101>105-231400-
...SOUTHWEST MISSOURI...

CITY           SKY/WX    TMP DP  RH WIND       PRES   REMARKS
SPRINGFIELD    CLEAR     31  26  82 S8        30.11F WCI  23
JOPLIN         CLEAR     32  24  72 S7        30.13S WCI  26

$$
MOZ032>034-039>042-045>050-055>058-069>072-231400-
...CENTRAL MISSOURI...

CITY           SKY/WX    TMP DP  RH WIND       PRES   REMARKS
COLUMBIA       NOT AVBL
JEFFERSON CITY CLEAR     31  18  58 E5        30.10F WCI  26
ROLLA          CLEAR     32  17  54 SW12      30.10S WCI  23
SEDALIA        CLEAR     37  25  61 SW17      30.07F WCI  27
WARRENSBURG    PTCLDY    32  23  69 S7        30.07F WCI  26

$$
MOZ051-052-059>065-231400-
...EAST CENTRAL MISSOURI...

CITY           SKY/WX    TMP DP  RH WIND       PRES   REMARKS
ST LOUIS INTL  NOT AVBL

$$
MOZ072>076-082>087-097>100-106>115-231400-
...SOUTH CENTRAL AND SOUTHEAST MISSOURI...

CITY           SKY/WX    TMP DP  RH WIND       PRES   REMARKS
CAPE GIRARDEAU CLEAR     22  20  92 CALM      30.19R
POPLAR BLUFF   CLOUDY    25  22  88 CALM      30.18F
WEST PLAINS    CLOUDY    29  19  66 S3        30.14S

$$


USA.gov is the U.S. government's official web portal to all federal, state and local government web resources and services.